Regional Weather Roundup
Issued by NWS

Home | Current Version | Previous Version | Text Only | Print | Product List | Glossary On
Versions: 1 2 3 4 5 6 7 8 9 10 11 12 13 14 15 16 17 18 19 20 21 22 23 24 25 26 27 28
000
ASUS45 KREV 301210
RWRNV
NEVADA REGIONAL WEATHER ROUNDUP
NATIONAL WEATHER SERVICE RENO NV
500 AM PDT SUN APR 30 2017

NOTE: "FAIR" INDICATES FEW OR NO CLOUDS BELOW 12,000 FEET WITH NO
SIGNIFICANT WEATHER AND/OR OBSTRUCTIONS TO VISIBILITY.

NVZ001-003-004-301300-
WESTERN NEVADA

CITY           SKY/WX    TMP DP  RH WIND       PRES   REMARKS
RENO           CLEAR     42  26  53 CALM      30.23R
6HR MIN TEMP:  42; 6HR MAX TEMP:  53;

CARSON CITY    FAIR      36  23  60 NW3       30.24S
MINDEN         FAIR      30  19  64 SE7       30.24S
FALLON         CLEAR     38  17  42 S3        30.19F
6HR MIN TEMP:  36; 6HR MAX TEMP:  49;

LOVELOCK       CLEAR     29  20  69 SE5       30.19F
6HR MIN TEMP:  29; 6HR MAX TEMP:  46;

HAWTHORNE      CLEAR     41  14  33 W5        30.21S
$$

NVZ002-CAZ072-073-301300-
NORTHERN AND CENTRAL SIERRA

CITY           SKY/WX    TMP DP  RH WIND       PRES   REMARKS
S. LAKE TAHOE  CLEAR     29  24  82 CALM      30.27S
6HR MIN TEMP:  28; 6HR MAX TEMP:  37;

TRUCKEE        CLEAR     27  27 100 CALM      30.28S
SQUAW VLY 8000   N/A     34  25  69 NW3         N/A
SUSANVILLE     CLEAR     37  30  75 W5        30.23R
MAMMOTH LAKES  FAIR      32  19  59 CALM      30.29S
6HR MIN TEMP:  28; 6HR MAX TEMP:  44;

$$

NVZ030-031-036-301300-
NORTHERN NEVADA

CITY           SKY/WX    TMP DP  RH WIND       PRES   REMARKS
ELKO           MOCLDY    34  29  82 CALM      30.22R
6HR MIN TEMP:  32; 6HR MAX TEMP:  42;

WINNEMUCCA     MOCLDY    38  30  73 E7        30.19S
6HR MIN TEMP:  33; 6HR MAX TEMP:  42;

$$

NVZ035-037-301300-
CENTRAL NEVADA

CITY           SKY/WX    TMP DP  RH WIND       PRES   REMARKS
ELY            CLEAR     22  17  81 S10       30.22F
6HR MIN TEMP:  22; 6HR MAX TEMP:  36;

EUREKA           N/A     30  19  63 SW7       30.23S
6HR MIN TEMP:  26; 6HR MAX TEMP:  34;

$$

NVZ013-014-301300-
SOUTH CENTRAL NEVADA

CITY           SKY/WX    TMP DP  RH WIND       PRES   REMARKS
TONOPAH        CLEAR     35  32  88 N12       30.22F
6HR MIN TEMP:  35; 6HR MAX TEMP:  48;

$$

NVZ017-020-022-301300-
SOUTHERN NEVADA

CITY           SKY/WX    TMP DP  RH WIND       PRES   REMARKS
LAS VEGAS      PTCLDY    59  16  18 SW3       30.10F
6HR MIN TEMP:  59; 6HR MAX TEMP:  68;

N. LAS VEGAS   PTCLDY    59  17  19 S5        30.11F
6HR MIN TEMP:  59; 6HR MAX TEMP:  68;

NELLIS AFB     PTCLDY    53  16  22 N8        30.11F
6HR MIN TEMP:  53; 6HR MAX TEMP:  68;

HENDERSON      PTCLDY    52  20  28 SE8       30.14F
6HR MIN TEMP:  52; 6HR MAX TEMP:  62;

MERCURY        PTCLDY    46  11  24 SE3       30.13S
6HR MIN TEMP:  46; 6HR MAX TEMP:  58;

$$




USA.gov is the U.S. government's official web portal to all federal, state and local government web resources and services.